AAL1437 KSLC-KJAC

Flight info

Callsign AAL1437
Flight time 0h 41m
Altitude 35000
Route RUGGD3 HOLTR ELLKK MOSSS
Aircraft B738/M-SDE2E3FGHIRWXY/LB1

Departure

Time 2026-05-06 22:45
Airport Salt Lake City International Airport (KSLC)

Arrival

Time 2026-05-06 23:26
Airport Jackson Hole Airport (KJAC)
Time Latitude Longitude Altitude Speed Heading
2026-05-06 22:25 40.78541 -111.98101 4234 ft 0 kts 354°
2026-05-06 22:36 40.78540 -111.98101 4234 ft 1 kts 354°
2026-05-06 22:37 40.78516 -111.98098 4232 ft 4 kts
2026-05-06 22:37 40.78494 -111.98109 4234 ft 4 kts 51°
2026-05-06 22:37 40.78485 -111.98133 4232 ft 1 kts 85°
2026-05-06 22:39 40.78485 -111.98132 4232 ft 1 kts 85°
2026-05-06 22:39 40.78489 -111.98081 4234 ft 8 kts 85°
2026-05-06 22:39 40.78494 -111.98006 4234 ft 8 kts 85°
2026-05-06 22:39 40.78499 -111.97926 4234 ft 9 kts 85°
2026-05-06 22:40 40.78507 -111.97841 4234 ft 9 kts 80°
2026-05-06 22:40 40.78517 -111.97759 4234 ft 9 kts 80°
2026-05-06 22:40 40.78524 -111.97679 4234 ft 9 kts 103°
2026-05-06 22:40 40.78472 -111.97648 4233 ft 9 kts 174°
2026-05-06 22:41 40.78341 -111.97633 4232 ft 10 kts 175°
2026-05-06 22:41 40.78270 -111.97625 4232 ft 11 kts 174°
2026-05-06 22:41 40.78189 -111.97616 4233 ft 12 kts 175°
2026-05-06 22:42 40.78107 -111.97606 4233 ft 12 kts 174°
2026-05-06 22:42 40.78027 -111.97596 4264 ft 12 kts 175°
2026-05-06 22:42 40.77941 -111.97581 4262 ft 13 kts 161°
2026-05-06 22:42 40.77854 -111.97529 4264 ft 14 kts 167°
2026-05-06 22:43 40.77762 -111.97516 4264 ft 13 kts 175°
2026-05-06 22:43 40.77673 -111.97506 4264 ft 13 kts 175°
2026-05-06 22:43 40.77586 -111.97493 4264 ft 12 kts 162°
2026-05-06 22:43 40.77560 -111.97397 4264 ft 12 kts 84°
2026-05-06 22:44 40.77609 -111.97330 4264 ft 12 kts 357°
2026-05-06 22:44 40.77741 -111.97345 4264 ft 46 kts 355°
2026-05-06 22:44 40.78343 -111.97416 4233 ft 125 kts 354°
2026-05-06 22:44 40.79416 -111.97523 4420 ft 174 kts 353°
2026-05-06 22:45 40.80571 -111.97621 5338 ft 178 kts 353°
2026-05-06 22:45 40.81782 -111.97796 6373 ft 181 kts 348°
2026-05-06 22:45 40.83115 -111.98037 6807 ft 207 kts 349°
2026-05-06 22:45 40.84635 -111.98309 7030 ft 233 kts 349°
2026-05-06 22:46 40.86288 -111.98595 7363 ft 252 kts 351°
2026-05-06 22:46 40.88097 -111.98901 7825 ft 266 kts 351°
2026-05-06 22:46 40.89929 -111.99205 8822 ft 266 kts 353°
2026-05-06 22:46 40.91783 -111.99511 9738 ft 269 kts 353°
2026-05-06 22:47 40.93642 -111.99816 10600 ft 274 kts 353°
2026-05-06 22:47 40.95579 -112.00134 11280 ft 283 kts 353°
2026-05-06 22:47 40.97546 -112.00456 12115 ft 287 kts 353°
2026-05-06 22:47 40.99534 -112.00783 13021 ft 288 kts 353°
2026-05-06 22:48 41.01531 -112.01082 13906 ft 290 kts 358°
2026-05-06 22:48 41.03523 -112.00611 14688 ft 294 kts 21°
2026-05-06 22:48 41.05262 -111.99141 15501 ft 301 kts 39°
2026-05-06 22:48 41.06563 -111.96921 16247 ft 312 kts 57°
2026-05-06 22:49 41.07545 -111.94329 17041 ft 314 kts 54°
2026-05-06 22:49 41.08934 -111.92153 17781 ft 308 kts 34°
2026-05-06 22:49 41.10705 -111.90663 18564 ft 306 kts 25°
2026-05-06 22:49 41.12590 -111.89338 19269 ft 307 kts 24°
2026-05-06 22:50 41.14499 -111.88023 19954 ft 309 kts 24°
2026-05-06 22:50 41.16411 -111.86703 20558 ft 313 kts 24°
2026-05-06 22:50 41.18356 -111.85350 21179 ft 316 kts 24°
2026-05-06 22:50 41.20307 -111.83982 21912 ft 316 kts 24°
2026-05-06 22:51 41.22259 -111.82607 22578 ft 318 kts 24°
2026-05-06 22:51 41.24225 -111.81218 23126 ft 323 kts 24°
2026-05-06 22:51 41.26219 -111.79806 23234 ft 328 kts 25°
2026-05-06 22:51 41.28220 -111.78386 23847 ft 328 kts 24°
2026-05-06 22:52 41.30223 -111.76962 24574 ft 324 kts 24°
2026-05-06 22:52 41.32221 -111.75542 25085 ft 327 kts 24°
2026-05-06 22:52 41.34240 -111.74107 25541 ft 331 kts 24°
2026-05-06 22:52 41.36278 -111.72659 26042 ft 333 kts 24°
2026-05-06 22:53 41.38337 -111.71214 26534 ft 334 kts 22°
2026-05-06 22:53 41.40493 -111.70084 27059 ft 333 kts 14°
2026-05-06 22:53 41.42724 -111.69204 27529 ft 335 kts 14°
2026-05-06 22:53 41.44977 -111.68341 27992 ft 338 kts 13°
2026-05-06 22:54 41.47228 -111.67481 28470 ft 340 kts 14°
2026-05-06 22:54 41.49513 -111.66601 28950 ft 343 kts 14°
2026-05-06 22:54 41.51812 -111.65709 29407 ft 346 kts 13°
2026-05-06 22:54 41.54141 -111.64801 29845 ft 349 kts 14°
2026-05-06 22:55 41.56475 -111.63886 30320 ft 350 kts 14°
2026-05-06 22:55 41.58025 -111.63277 30563 ft 352 kts 14°
2026-05-06 22:55 41.60387 -111.62349 30910 ft 354 kts 14°
2026-05-06 22:55 41.62760 -111.61415 31257 ft 357 kts 14°
2026-05-06 22:56 41.65147 -111.60475 31597 ft 359 kts 13°
2026-05-06 22:56 41.67554 -111.59525 31903 ft 362 kts 13°
2026-05-06 22:56 41.69976 -111.58570 32204 ft 364 kts 13°
2026-05-06 22:56 41.72417 -111.57605 32563 ft 366 kts 13°
2026-05-06 22:57 41.74862 -111.56639 32882 ft 367 kts 13°
2026-05-06 22:57 41.77324 -111.55666 33157 ft 370 kts 13°
2026-05-06 22:57 41.79810 -111.54718 33444 ft 371 kts 10°
2026-05-06 22:57 41.82319 -111.54078 33715 ft 372 kts
2026-05-06 22:58 41.84912 -111.53501 34010 ft 374 kts
2026-05-06 22:58 41.87475 -111.52942 34257 ft 376 kts
2026-05-06 22:58 41.90067 -111.52375 34503 ft 378 kts
2026-05-06 22:58 41.92669 -111.51799 34745 ft 379 kts
2026-05-06 22:59 41.95285 -111.51213 34973 ft 381 kts
2026-05-06 22:59 41.97883 -111.50628 35093 ft 385 kts
2026-05-06 22:59 42.00539 -111.50027 35112 ft 389 kts
2026-05-06 23:00 42.05962 -111.48796 35108 ft 400 kts
2026-05-06 23:00 42.11519 -111.47530 35113 ft 410 kts
2026-05-06 23:01 42.17158 -111.46241 35103 ft 411 kts
2026-05-06 23:01 42.22804 -111.44949 35089 ft 412 kts
2026-05-06 23:02 42.28452 -111.43654 35100 ft 411 kts
2026-05-06 23:02 42.33920 -111.41450 35104 ft 415 kts 17°
2026-05-06 23:03 42.39330 -111.38714 35104 ft 415 kts 16°
2026-05-06 23:03 42.44748 -111.35995 35096 ft 415 kts 16°
2026-05-06 23:04 42.50164 -111.33292 35105 ft 415 kts 16°
2026-05-06 23:04 42.55587 -111.30590 35107 ft 415 kts 16°
2026-05-06 23:05 42.61008 -111.27882 35122 ft 414 kts 16°
2026-05-06 23:05 42.66424 -111.25172 35121 ft 414 kts 16°
2026-05-06 23:06 42.71833 -111.22459 35122 ft 414 kts 16°
2026-05-06 23:06 42.77201 -111.19763 35112 ft 413 kts 16°
2026-05-06 23:07 42.82600 -111.17045 35123 ft 413 kts 16°
2026-05-06 23:07 42.88008 -111.14319 35121 ft 414 kts 16°
2026-05-06 23:08 42.93261 -111.11001 35117 ft 421 kts 27°
2026-05-06 23:08 42.97946 -111.06055 35101 ft 426 kts 33°
2026-05-06 23:09 43.02536 -111.00997 35110 ft 425 kts 32°
2026-05-06 23:09 43.04857 -110.98451 34928 ft 428 kts 32°
2026-05-06 23:09 43.07201 -110.95890 34337 ft 429 kts 32°
2026-05-06 23:09 43.09512 -110.93359 33589 ft 422 kts 32°
2026-05-06 23:10 43.11758 -110.90896 32879 ft 415 kts 32°
2026-05-06 23:10 43.13996 -110.88443 32147 ft 410 kts 32°
2026-05-06 23:10 43.16208 -110.86019 31413 ft 405 kts 32°
2026-05-06 23:10 43.18409 -110.83609 30669 ft 404 kts 32°
2026-05-06 23:11 43.20612 -110.81197 29852 ft 408 kts 32°
2026-05-06 23:11 43.22867 -110.78733 28913 ft 421 kts 33°
2026-05-06 23:11 43.25191 -110.76189 27992 ft 433 kts 33°
2026-05-06 23:11 43.27558 -110.73589 27047 ft 436 kts 33°
2026-05-06 23:12 43.29892 -110.71013 26409 ft 437 kts 33°
2026-05-06 23:12 43.32263 -110.68393 25677 ft 434 kts 33°
2026-05-06 23:12 43.34600 -110.65805 24995 ft 429 kts 34°
2026-05-06 23:12 43.36914 -110.63240 24351 ft 424 kts 34°
2026-05-06 23:13 43.39209 -110.60700 23645 ft 421 kts 34°
2026-05-06 23:13 43.41482 -110.58183 22870 ft 417 kts 34°
2026-05-06 23:13 43.43729 -110.55692 22161 ft 412 kts 34°
2026-05-06 23:13 43.45942 -110.53236 21495 ft 405 kts 34°
2026-05-06 23:14 43.48118 -110.50818 20862 ft 399 kts 34°
2026-05-06 23:14 43.50273 -110.48423 20197 ft 396 kts 34°
2026-05-06 23:14 43.52408 -110.46049 19572 ft 392 kts 34°
2026-05-06 23:14 43.54496 -110.43728 18921 ft 389 kts 34°
2026-05-06 23:15 43.56593 -110.41393 18274 ft 386 kts 34°
2026-05-06 23:15 43.58676 -110.39065 17584 ft 384 kts 34°
2026-05-06 23:15 43.60749 -110.36751 16915 ft 382 kts 34°
2026-05-06 23:15 43.62813 -110.34446 16186 ft 381 kts 34°
2026-05-06 23:16 43.64868 -110.32146 15548 ft 379 kts 34°
2026-05-06 23:16 43.67055 -110.30202 14897 ft 371 kts 18°
2026-05-06 23:16 43.69529 -110.29400 14262 ft 363 kts
2026-05-06 23:16 43.72026 -110.29556 13621 ft 357 kts 347°
2026-05-06 23:17 43.74421 -110.30390 13213 ft 348 kts 343°
2026-05-06 23:17 43.76707 -110.31271 13116 ft 334 kts 343°
2026-05-06 23:17 43.78878 -110.32090 12969 ft 321 kts 343°
2026-05-06 23:17 43.79289 -110.32258 12943 ft 318 kts 341°
2026-05-06 23:18 43.81154 -110.33649 12820 ft 306 kts 320°
2026-05-06 23:18 43.82565 -110.35790 12681 ft 297 kts 306°
2026-05-06 23:18 43.83504 -110.38275 12477 ft 293 kts 291°
2026-05-06 23:18 43.84005 -110.40973 12327 ft 286 kts 284°
2026-05-06 23:19 43.84378 -110.43644 12153 ft 279 kts 283°
2026-05-06 23:19 43.84728 -110.46244 11971 ft 270 kts 283°
2026-05-06 23:19 43.85079 -110.48763 11818 ft 262 kts 284°
2026-05-06 23:19 43.85429 -110.51209 11670 ft 255 kts 284°
2026-05-06 23:20 43.85775 -110.53600 11519 ft 250 kts 284°
2026-05-06 23:20 43.86114 -110.55928 11373 ft 243 kts 284°
2026-05-06 23:20 43.86309 -110.58228 11214 ft 242 kts 265°
2026-05-06 23:20 43.85602 -110.60296 11043 ft 247 kts 229°
2026-05-06 23:21 43.84242 -110.61726 10845 ft 244 kts 216°
2026-05-06 23:21 43.82767 -110.62847 10566 ft 238 kts 213°
2026-05-06 23:21 43.81288 -110.63808 10320 ft 232 kts 204°
2026-05-06 23:21 43.79773 -110.64510 10089 ft 225 kts 203°
2026-05-06 23:22 43.78325 -110.65192 9813 ft 215 kts 204°
2026-05-06 23:22 43.76952 -110.65860 9608 ft 202 kts 204°
2026-05-06 23:22 43.75655 -110.66493 9356 ft 194 kts 205°
2026-05-06 23:22 43.74430 -110.67089 9158 ft 176 kts 205°
2026-05-06 23:23 43.73333 -110.67624 8918 ft 162 kts 204°
2026-05-06 23:23 43.72284 -110.68138 8703 ft 158 kts 204°
2026-05-06 23:23 43.71242 -110.68647 8493 ft 159 kts 204°
2026-05-06 23:23 43.70199 -110.69155 8307 ft 164 kts 203°
2026-05-06 23:24 43.69128 -110.69675 8092 ft 161 kts 206°
2026-05-06 23:24 43.68077 -110.70188 7874 ft 159 kts 204°
2026-05-06 23:24 43.67021 -110.70705 7674 ft 162 kts 202°
2026-05-06 23:24 43.65952 -110.71209 7461 ft 162 kts 203°
2026-05-06 23:25 43.64905 -110.71748 7234 ft 158 kts 204°
2026-05-06 23:25 43.63869 -110.72249 7014 ft 157 kts 204°
2026-05-06 23:25 43.62854 -110.72739 6743 ft 152 kts 202°
2026-05-06 23:25 43.61885 -110.73209 6524 ft 142 kts 203°
2026-05-06 23:26 43.60993 -110.73646 6424 ft 126 kts 202°
2026-05-06 23:26 43.60377 -110.73949 6414 ft 63 kts 199°
2026-05-06 23:26 43.60116 -110.74078 6415 ft 31 kts 200°
2026-05-06 23:26 43.59970 -110.74147 6418 ft 16 kts 190°
2026-05-06 23:27 43.59905 -110.74075 6420 ft 9 kts 109°
2026-05-06 23:27 43.59927 -110.74008 6421 ft 9 kts 26°
2026-05-06 23:27 43.59986 -110.73980 6419 ft 9 kts 19°
2026-05-06 23:27 43.60046 -110.73950 6419 ft 9 kts 19°
2026-05-06 23:28 43.60105 -110.73921 6418 ft 9 kts 19°
2026-05-06 23:28 43.60162 -110.73893 6417 ft 9 kts 20°
2026-05-06 23:28 43.60219 -110.73865 6418 ft 9 kts 19°
2026-05-06 23:28 43.60281 -110.73835 6417 ft 10 kts 20°
2026-05-06 23:29 43.60313 -110.73811 6419 ft 4 kts 61°
2026-05-06 23:29 43.60308 -110.73778 6421 ft 3 kts 110°
2026-05-06 23:29 43.60301 -110.73752 6422 ft 2 kts 108°
2026-05-06 23:29 43.60298 -110.73739 6419 ft 0 kts 109°